User: anonymous
Location: Caltech
(34.1382°N, 118.1253°W)
Time: 22:55:47
(UTC-07:00)
Language:

Iridium 95 - Orbit

View from above orbital plane
View from above orbital plane
View from above satellite
View from above satellite

Ground track
Ground track

The orbit data is extracted from the following two-line orbital elements,

1 27375U 02005D   14262.31925676  .00000411  00000-0  13973-3 0  4363
2 27375 086.4021 346.2595 0002427 110.8302 249.3154 14.34220009667317
Epoch (UTC): 19 September 2014 07:39:43
Eccentricity: 0.0002427
inclination: 86.4021°
perigee height: 776 km
apogee height: 779 km
right ascension of ascending node: 346.2595°
argument of perigee: 110.8302°
revolutions per day: 14.34220009
mean anomaly at epoch: 249.3154°
orbit number at epoch: 66731

The dashed part of the orbit path shows where the satellite is in the earth's shadow,  

DLR